Home > Weather > Tucson > Past weeks

Flag for U.S.A. Weather for the Past 2 Weeks in Tucson, Arizona, U.S.A.

Now
47 °F

Sunny.


Feels Like: 43 °F
Forecast: 46 / 80 °F
Wind: 8 mph from Southeast

Location: Davis-Monthan Air Force Base

Current Time: Feb 14, 2016 at 8:18:29 AM

Latest Report: Feb 14, 2016 at 7:58 AM


Visibility: 10 mi

Pressure: 29.98 "Hg (27.34 "Hg at 758m altitude)

Humidity: 38%

Dew point: 23 °F

Location of TucsonLocation

Historic Weather in Tucson — Graph

°F

Tucson Temperature Yesterday

Maximum temperature yesterday: 83 °F (at 2:58 PM)
Minimum temperature yesterday: 50 °F (at 6:58 AM)
Average temperature yesterday: 65 °F

High & Low Weather Summary for the Past Weeks

 TemperatureHumidityPressure
High84 °F (Feb 12, 3:58 PM)92% (Feb 1, 1:58 AM)30.32 "Hg (Feb 1, 1:58 AM)
Low26 °F (Feb 3, 5:58 AM)6% (Feb 6, 4:58 PM)29.59 "Hg (Feb 1, 12:58 AM)
Average55 °F30%30.07 "Hg
* Reported Jan 30 6:58 AM — Feb 14 6:58 AM, Tucson, Weather by CustomWeather, © 2016

Note: Actual official high and low records may vary slightly from our data, if they occured in-between our weather recording intervals... More about our weather records

Advertising

Tucson Weather History for the Previous 24 Hours

 ConditionsComfort  
Time TempWeatherWind HumidityBarometerVisibility
6:58 AM
Sun, Feb 14
46 °FClear.10 mph39%29.98 "Hg10 mi
5:58 AM45 °FClear.5 mph43%29.96 "Hg10 mi
4:58 AM45 °FClear.12 mph44%29.96 "Hg10 mi
3:58 AM47 °FClear.No wind41%29.96 "Hg10 mi
2:58 AM49 °FClear.8 mph38%29.94 "Hg10 mi
1:58 AM49 °FClear.6 mph39%29.96 "Hg10 mi
12:58 AM50 °FClear.7 mph39%29.96 "Hg10 mi
11:58 PM
Sat, Feb 13
54 °FClear.6 mph33%29.96 "Hg10 mi
10:58 PM56 °FClear.7 mph31%29.98 "Hg10 mi
9:58 PM58 °FClear.7 mph27%29.96 "Hg10 mi
8:58 PM63 °FClear.9 mph22%29.96 "Hg10 mi
7:58 PM69 °FClear.10 mph18%29.95 "Hg10 mi
6:58 PM72 °FClear.9 mph15%29.95 "Hg10 mi
5:58 PM76 °FSunny.13 mph14%29.92 "Hg10 mi
4:58 PM80 °FSunny.16 mph9%29.90 "Hg10 mi
3:58 PM83 °FSunny.15 mph8%29.90 "Hg10 mi
2:58 PM83 °FSunny.6 mph7%29.89 "Hg10 mi
1:58 PM81 °FSunny.6 mph9%29.94 "Hg10 mi
12:58 PM79 °FSunny.5 mph11%29.98 "Hg10 mi
11:58 AM76 °FSunny.No wind13%30.01 "Hg10 mi
10:58 AM73 °FSunny.3 mph14%30.03 "Hg10 mi
9:58 AM66 °FSunny.6 mph19%30.04 "Hg10 mi
8:58 AM62 °FSunny.9 mph20%30.06 "Hg10 mi
Weather by CustomWeather, © 2016

See weather overviewHow to use our weather pages